Temp
22 21 21 22 23 24 24 25 26 27 28 28 27 26 25 25 26 29 31 31 31 29 29 30 30 30 32 32 32 31 31 31 28 24 23 24 23 22 23 24 25 26 26 27 27 25 24 23 23 22 22 22 22 22 22 21 21 21 21 20 20 20 19 19 20 20 20 20 20 20 20 21 21 21 21 21 21 21 21 20 20 20 20 20 20 20
22 21 21 23 24 25 25 25 26 26 28 28 27 26 25 26 26 29 31 30 31 29 28 30 30 30 32 32 32 32 31 31 29 24 23 24 22 20 22 24 26 26 26 26 26 25 24 23 23 23 22 22 22 22 22 21 21 21 20 20 19 19 19 19 19 19 19 19 20 20 21 21 21 21 21 21 21 21 20 20 20 20 20 20 20 20
21 21 22 24 25 25 26 26 26 26 27 27 27 25 24 26 27 29 31 30 30 29 28 30 29 29 32 32 32 32 31 31 31 28 27 26 23 21 24 26 26 26 26 26 25 24 24 23 23 22 22 22 21 20 21 21 21 20 20 19 18 18 18 18 17 17 16 17 19 20 21 22 22 22 22 22 21 21 20 20 20 20 20 20 20 20
20 22 23 25 25 25 25 25 26 26 26 26 26 25 23 26 26 25 28 30 29 29 29 30 29 29 32 32 32 32 31 31 31 30 29 27 25 22 24 26 26 25 25 25 25 24 22 21 21 21 21 21 19 19 20 20 20 19 18 18 17 17 18 18 18 18 17 16 18 19 21 21 22 22 21 21 21 21 20 20 20 20 20 20 20 20
22 23 24 25 25 25 25 25 26 25 25 25 26 25 25 27 27 26 28 29 28 29 30 30 26 26 30 31 31 32 32 31 31 31 29 27 25 20 20 21 23 25 25 25 24 21 20 19 18 19 20 18 17 18 19 19 19 18 18 18 17 17 18 18 18 19 19 18 16 18 21 21 21 21 21 21 21 21 21 21 21 21 20 20 20 20
23 24 25 24 24 25 25 25 25 24 23 24 26 27 27 28 28 29 29 27 25 24 28 28 22 23 28 30 31 31 31 31 31 30 29 28 26 22 20 19 21 24 22 21 20 18 17 17 17 18 17 16 17 18 18 18 18 18 18 19 18 19 19 18 18 19 19 19 16 17 21 21 22 22 22 22 22 22 22 21 21 20 20 20 20 20
24 25 25 24 24 25 25 25 25 25 23 22 25 27 28 29 28 28 28 25 22 22 28 29 23 22 25 28 31 31 30 31 30 30 28 28 27 24 23 22 22 23 19 17 17 16 16 17 17 17 15 17 18 17 17 17 17 18 18 18 18 19 18 17 18 18 19 20 18 18 21 22 22 23 22 22 22 22 22 21 20 20 20 20 19 19
24 25 24 24 25 24 24 24 25 26 23 23 26 27 27 28 28 28 27 25 24 25 27 28 26 23 22 26 31 31 29 30 30 30 28 28 28 26 26 25 23 20 17 17 17 16 17 17 17 16 16 18 19 17 17 17 16 17 17 16 17 18 17 17 18 18 19 20 18 19 22 23 23 23 22 22 21 21 21 21 20 20 20 19 19 19
24 24 24 25 24 24 24 25 26 26 24 25 28 28 27 27 27 28 27 25 26 25 23 25 26 23 21 26 31 31 29 29 30 30 27 28 29 27 27 26 21 18 17 17 17 17 17 17 17 17 18 19 19 17 17 17 16 17 16 16 17 17 17 18 18 18 19 19 18 20 22 22 22 22 22 22 21 21 21 21 20 20 20 19 19 19
24 24 25 25 24 24 24 25 26 26 25 26 28 28 27 28 27 28 26 25 24 23 21 23 25 22 21 25 28 28 27 28 30 30 28 27 28 28 28 25 20 19 18 18 17 17 17 18 18 19 19 19 18 17 17 17 17 17 17 17 17 17 17 18 19 19 19 17 18 21 22 22 22 22 22 22 21 21 21 20 20 20 20 19 19 19
25 25 25 24 23 24 25 26 26 26 26 27 28 27 26 27 27 27 26 25 23 21 22 23 25 23 22 23 27 28 28 29 30 30 30 29 28 29 28 23 21 21 19 17 17 17 18 18 18 19 19 18 17 17 18 17 17 17 17 17 17 17 17 18 18 18 18 17 19 22 22 21 22 21 21 21 21 21 21 20 20 20 19 19 19 19
25 24 24 24 24 25 26 26 26 27 26 26 27 25 24 24 24 24 23 23 22 21 22 24 25 24 21 23 28 31 31 31 31 31 31 30 29 29 27 23 22 22 19 18 17 18 18 18 18 19 18 17 17 17 17 17 17 17 17 17 18 18 18 18 17 16 16 18 20 22 21 21 21 21 21 21 21 21 20 20 20 20 19 19 19 19
23 23 24 24 24 25 25 25 25 26 26 26 25 23 22 21 21 21 21 21 21 21 23 25 25 23 22 25 30 32 31 31 31 31 32 31 31 30 26 23 23 22 19 18 19 19 19 18 19 20 18 17 17 17 17 17 17 17 17 18 18 18 18 18 18 17 16 18 21 21 21 21 20 21 21 20 20 20 20 20 20 19 19 19 19 19
22 22 23 23 24 25 25 24 23 23 24 25 24 22 21 21 21 20 21 21 21 21 23 25 24 22 23 27 31 32 32 32 31 32 32 31 32 31 26 24 24 22 20 20 20 20 19 19 20 20 19 18 18 17 17 17 17 17 17 18 18 18 18 18 18 18 16 18 20 20 20 20 20 20 20 20 20 20 19 19 19 19 19 19 18 18
21 21 22 23 23 24 25 25 24 24 24 25 25 24 22 21 21 21 21 21 21 21 22 24 24 22 22 26 31 32 32 32 32 32 32 31 32 31 26 23 23 22 21 21 22 21 20 20 21 20 19 19 19 18 18 17 17 17 17 18 17 17 18 18 19 19 17 17 19 20 20 20 20 20 20 19 19 19 18 18 18 18 18 17 17 17
21 21 23 24 24 25 25 26 26 25 24 25 26 24 22 23 23 21 21 22 21 21 22 22 23 24 26 29 32 32 32 32 31 31 31 30 31 29 24 23 23 22 23 23 22 22 21 21 22 21 20 19 19 19 18 18 18 17 18 18 18 17 18 18 19 19 18 17 18 19 19 19 19 19 19 19 18 18 17 17 17 17 17 16 16 16
21 21 23 24 24 25 25 26 27 26 24 24 24 23 24 27 26 22 21 22 22 21 22 22 22 24 27 28 30 31 31 31 30 30 30 30 30 27 24 24 23 23 24 24 23 22 21 22 22 21 20 19 19 19 19 19 19 19 18 18 18 18 17 18 19 19 18 18 18 19 19 18 18 18 18 18 17 17 17 17 17 16 16 16 15 16
22 21 23 24 23 24 25 26 27 27 26 24 23 24 27 28 27 24 21 21 21 21 22 22 22 22 23 24 28 30 30 30 29 30 30 30 29 27 25 24 24 24 24 24 23 22 22 22 22 21 20 19 19 19 19 19 19 19 18 18 19 18 18 18 19 18 18 18 18 18 18 18 17 17 17 17 17 17 17 16 16 16 16 15 15 15
23 21 22 24 23 24 25 25 24 26 27 26 25 27 27 23 23 23 22 21 21 21 21 21 22 22 22 23 27 28 28 29 29 29 29 29 29 28 27 25 24 24 24 23 23 22 22 22 22 21 20 20 20 20 19 19 19 19 19 19 19 18 18 19 19 18 18 18 17 17 17 17 17 17 17 17 17 16 16 16 16 16 15 15 15 15
24 21 21 23 24 24 24 23 22 23 25 26 26 27 27 24 23 23 22 22 21 21 21 21 21 22 23 26 28 28 28 29 29 29 29 29 29 29 28 26 25 24 24 23 22 22 22 22 21 21 21 21 20 20 19 19 19 19 19 19 19 18 18 18 18 18 17 17 17 17 17 17 17 17 16 16 16 16 16 15 15 15 15 15 15 15
23 22 20 22 24 23 22 22 23 23 24 24 24 24 24 24 25 24 23 23 22 21 21 21 21 22 26 30 30 29 29 29 29 30 29 29 29 29 29 27 25 25 23 22 22 22 22 21 21 21 21 21 21 20 20 19 19 19 19 19 18 18 18 18 18 17 17 17 17 17 16 16 16 16 16 16 16 16 15 14 14 15 15 14 14 13
23 22 21 21 22 21 22 24 25 25 25 24 23 24 24 24 23 22 22 22 23 22 21 21 21 22 27 31 31 30 30 29 30 30 30 30 29 29 29 27 25 25 23 21 21 21 21 21 21 21 21 21 21 20 20 20 20 19 19 18 18 17 17 17 17 17 17 17 16 16 16 16 16 15 15 15 15 15 14 14 14 14 14 14 13 13
23 22 21 21 21 22 24 25 25 26 26 25 25 26 26 25 23 21 21 22 22 22 22 22 21 22 27 30 30 30 30 30 30 30 30 30 29 28 28 26 25 24 22 21 21 21 21 21 21 21 21 21 20 20 19 19 19 19 18 18 17 17 17 17 17 17 16 16 16 16 15 15 15 15 14 14 14 14 13 13 13 12 13 13 13 12
23 22 21 21 22 23 25 25 25 26 26 25 25 26 26 26 25 23 23 23 22 22 22 22 21 22 26 28 28 29 29 29 28 29 28 28 28 27 25 24 24 23 21 21 21 20 21 21 21 21 21 21 20 19 19 19 19 18 18 18 18 17 17 17 17 17 16 16 16 15 15 14 14 14 14 13 13 12 13 12 12 12 13 13 12 12
22 21 21 21 21 21 22 23 23 24 24 25 25 25 25 26 26 25 25 24 22 22 22 22 21 22 25 27 27 28 28 27 27 27 27 26 25 24 23 23 23 22 22 21 21 20 20 20 20 21 21 20 20 19 19 19 19 19 18 18 18 17 17 17 17 16 16 16 15 15 14 14 14 14 13 13 12 12 12 12 12 12 12 12 12 11
21 21 22 21 20 20 20 21 21 22 23 24 25 25 25 26 26 24 23 22 21 22 22 22 22 22 24 26 26 27 28 27 26 25 25 24 23 22 22 22 22 21 21 21 21 20 20 20 20 21 21 20 20 19 19 19 19 19 18 18 17 17 17 17 16 16 15 15 15 14 14 13 13 13 12 12 12 12 12 12 12 12 12 12 11 11
21 22 22 21 21 21 21 22 23 23 23 23 23 24 25 25 26 25 22 21 22 22 22 22 23 22 23 25 26 27 27 25 24 24 23 23 22 22 22 21 19 20 21 21 21 21 20 20 20 21 21 20 20 19 19 19 19 19 18 18 17 17 17 16 16 16 15 15 14 14 13 13 12 12 12 12 12 12 12 12 12 12 11 11 11 11
21 21 22 22 22 23 23 23 24 24 23 22 23 23 24 25 25 24 22 22 23 22 21 23 25 23 23 25 26 26 26 24 23 23 23 22 22 22 21 19 18 18 20 21 21 21 20 20 20 21 21 20 19 19 19 19 19 18 18 17 17 16 16 16 16 15 15 14 13 13 12 12 12 12 12 12 12 12 12 12 11 11 11 11 11 11
21 21 22 22 22 24 24 24 24 24 23 23 23 23 24 24 24 23 23 24 24 22 21 24 25 24 25 26 26 26 25 24 23 23 23 22 22 22 20 18 17 18 19 20 20 20 20 19 20 20 20 19 19 18 18 18 18 18 17 16 16 15 15 15 15 15 14 13 12 12 12 12 12 12 12 12 12 12 12 12 11 11 11 11 11 12
22 21 22 22 22 22 23 23 24 24 24 24 24 24 24 24 24 24 24 25 25 23 24 25 25 25 27 26 25 26 26 24 24 23 22 21 21 20 19 18 18 18 19 20 20 19 19 19 18 18 18 17 17 16 16 16 16 16 16 15 15 15 15 14 14 14 13 12 12 11 11 12 12 12 12 12 12 12 12 11 11 11 11 12 12 12
22 21 22 22 21 21 22 22 23 23 23 23 23 24 24 24 24 24 24 25 24 23 25 25 23 25 27 25 24 24 24 24 24 22 22 21 20 19 20 19 18 18 20 20 19 18 18 17 17 17 16 15 14 14 14 14 14 15 15 15 14 14 14 13 13 13 12 12 12 11 12 12 12 12 12 12 12 12 12 11 12 12 12 12 12 12
21 21 22 22 20 20 21 21 21 22 22 22 22 23 23 23 23 24 24 25 24 23 24 23 22 25 26 24 23 23 23 23 23 22 22 21 20 19 20 20 19 19 19 18 17 16 16 16 16 15 14 13 13 13 13 13 13 13 13 13 13 13 12 12 12 12 11 12 12 12 12 12 12 12 13 13 12 12 12 12 12 12 13 13 12 12
21 20 21 21 20 20 21 20 20 20 20 20 22 23 23 23 24 24 24 25 25 24 23 22 23 26 25 23 22 22 22 22 22 22 22 21 20 20 20 20 19 19 18 16 16 15 15 15 15 14 14 13 13 13 13 13 12 12 12 12 12 12 12 12 11 11 11 12 12 12 12 12 12 12 12 12 12 12 12 12 13 13 13 12 12 11
21 20 20 21 20 20 21 20 19 18 19 20 22 24 24 24 24 24 24 24 25 25 25 24 26 27 26 24 23 23 22 22 22 22 23 22 21 20 20 19 19 18 17 16 15 15 14 14 14 14 14 14 14 13 13 12 12 12 12 11 11 11 11 11 11 11 11 12 12 12 12 12 12 12 12 12 13 13 13 13 13 13 13 12 12 12
21 20 20 21 21 20 20 20 18 17 18 19 21 23 24 24 24 24 24 25 25 25 25 26 26 26 24 23 24 23 23 23 22 22 23 22 21 20 19 19 18 18 16 16 15 15 14 14 13 13 13 13 13 13 12 12 12 12 12 11 11 11 11 11 11 11 11 11 11 12 12 12 12 11 12 12 13 13 13 13 13 13 13 13 13 12
20 20 21 21 21 19 18 18 18 17 17 18 19 21 22 22 23 22 22 23 25 25 25 25 26 25 23 23 24 24 23 22 21 21 22 22 21 19 19 19 18 17 16 16 15 14 14 14 13 13 13 13 13 13 13 13 12 12 12 12 12 11 11 11 11 11 11 11 11 12 12 11 11 12 12 13 13 13 13 13 13 13 13 13 12 12
21 21 21 20 20 20 18 18 19 18 17 18 19 20 21 21 22 22 21 22 24 25 25 25 26 26 24 24 24 24 22 21 20 20 21 21 20 19 19 19 17 17 16 16 15 14 14 14 13 14 13 14 14 14 14 13 13 13 13 12 12 12 12 12 12 11 11 11 11 12 12 11 11 12 12 13 13 13 13 13 13 13 13 13 12 12
21 21 21 20 20 20 19 19 19 18 18 19 20 21 21 21 22 22 21 22 24 25 25 25 25 25 24 24 24 23 22 21 20 20 20 20 20 20 19 18 17 17 16 16 15 14 14 14 15 15 15 15 15 14 14 14 14 13 13 12 12 12 12 12 12 12 11 11 11 12 12 12 12 12 12 12 12 12 13 13 13 13 13 13 13 12
21 21 21 20 20 19 19 19 19 19 18 19 20 21 21 21 21 22 21 21 23 24 25 25 25 25 24 23 23 23 22 22 22 21 20 20 20 20 19 18 17 17 17 16 15 15 15 15 16 16 16 15 15 15 14 14 14 14 13 13 12 12 12 12 12 12 11 11 11 12 12 12 12 12 12 12 12 12 12 13 13 13 13 13 13 13
20 20 20 20 19 19 19 19 19 19 19 19 19 20 21 21 20 20 20 19 20 22 24 25 25 24 23 22 22 22 22 22 22 21 20 20 20 19 19 18 18 18 18 17 16 16 16 15 15 16 15 15 15 15 14 14 14 13 13 12 12 12 12 11 11 11 11 11 11 12 12 12 11 12 12 12 12 12 12 12 13 13 13 13 13 12
19 19 20 19 19 20 19 19 19 18 18 19 19 20 20 20 20 19 19 19 18 20 22 23 23 23 22 21 21 22 22 22 23 21 20 20 19 19 19 19 18 18 18 17 16 16 16 15 15 15 15 15 15 15 15 14 14 13 12 12 12 11 11 11 11 11 11 11 11 11 12 11 11 11 11 12 12 12 12 12 12 12 13 12 12 12
18 19 19 19 19 20 20 20 20 18 17 18 20 20 20 20 19 18 18 18 18 19 21 21 20 21 21 21 21 22 22 22 22 21 20 19 18 18 19 18 18 18 18 17 16 16 16 16 15 15 15 15 15 15 14 14 13 12 12 11 11 10 10 10 11 11 11 10 11 11 11 11 10 10 11 11 12 12 12 12 12 12 12 12 12 11
19 18 19 19 20 20 19 19 19 17 17 18 19 19 19 18 18 17 18 19 19 20 21 21 19 20 22 21 20 21 21 21 21 20 19 19 18 18 19 19 18 18 17 16 16 16 16 16 15 15 15 15 15 15 14 13 12 12 11 10 10 10 10 10 11 11 11 10 10 10 10 10 10 11 11 11 12 12 12 12 12 12 12 11 11 11
18 18 18 19 20 19 19 18 17 17 17 18 18 18 18 17 18 18 18 19 19 20 21 21 19 20 22 21 20 20 20 20 20 19 18 18 18 18 18 18 18 17 16 16 16 16 16 16 16 15 15 15 14 14 13 12 12 11 10 10 9 9 10 10 11 11 10 10 10 10 10 11 11 11 11 11 12 12 12 12 12 12 12 12 12 12
17 17 17 17 17 18 18 17 17 16 17 18 18 17 18 18 18 18 18 19 19 20 21 21 20 21 21 20 19 19 19 19 19 19 18 18 18 18 18 18 17 16 16 17 16 16 16 16 16 15 15 15 14 13 12 12 11 10 10 9 9 9 10 10 10 10 10 10 10 10 11 11 11 11 11 12 12 12 12 12 13 13 13 13 12 12
18 18 17 15 15 16 17 17 17 17 17 17 18 17 18 18 19 18 18 19 20 20 20 20 20 20 20 20 19 19 19 19 19 18 18 17 17 17 17 17 16 16 17 17 16 16 17 17 16 15 14 14 14 13 12 11 10 10 9 8 9 9 10 10 10 10 10 11 11 11 11 11 11 11 12 12 12 12 12 13 13 13 13 13 13 13
18 18 18 17 17 17 17 17 17 17 16 17 17 17 18 18 18 19 19 19 19 20 20 19 19 19 19 19 19 18 18 18 18 18 17 17 17 17 16 16 16 16 17 17 16 16 17 16 15 15 14 14 13 12 11 10 10 9 9 9 9 9 10 10 10 10 11 11 11 11 11 11 11 12 12 12 12 13 13 13 13 12 12 12 12 13
17 18 19 19 18 17 17 17 17 16 16 17 18 18 18 18 18 18 18 18 19 19 19 18 18 19 18 19 19 18 18 18 18 17 17 17 16 16 15 15 16 16 16 16 16 16 16 16 15 15 14 13 13 12 11 10 10 9 9 9 9 9 10 10 10 10 11 11 11 11 11 11 12 12 12 11 11 11 12 12 12 10 9 10 10 12
17 17 18 19 17 14 15 17 17 17 17 17 18 17 17 17 17 17 18 18 18 19 19 18 18 18 18 18 18 17 17 18 17 17 16 16 14 14 14 14 15 15 16 15 15 16 16 16 15 14 14 13 12 11 10 10 9 9 9 9 9 9 10 10 10 10 11 11 11 11 11 12 12 12 11 9 9 9 9 10 10 8 7 7 9 10
17 15 16 18 16 14 15 16 16 16 16 16 16 16 15 16 17 17 17 18 18 18 18 17 17 17 18 18 18 17 18 17 17 16 16 14 13 13 14 14 14 14 15 15 15 15 16 16 15 14 13 12 11 10 10 9 9 9 8 8 8 9 9 10 10 10 10 11 11 12 12 13 12 11 10 9 8 7 7 7 7 7 7 7 8 9
16 14 15 16 15 15 15 16 16 16 15 15 15 15 15 16 16 16 16 16 17 17 17 17 16 17 17 16 17 17 17 17 16 15 15 14 12 12 13 13 13 13 14 14 14 14 15 15 14 13 12 11 10 10 9 9 9 9 9 8 8 8 9 10 10 10 10 11 11 11 12 12 11 10 10 9 8 7 6 6 6 6 6 7 7 8
Height
730 736 733 726 723 722 721 720 720 716 710 710 711 715 716 711 707 703 698 696 700 711 714 709 712 711 701 696 698 700 700 703 715 729 731 728 733 738 737 736 733 730 728 726 730 735 738 742 746 750 754 756 760 763 767 771 774 777 779 781 783 785 787 789 791 793 793 794 796 797 798 799 800 802 803 805 806 808 809 810 811 812 813 814 815 816
726 730 722 717 718 715 716 717 717 716 711 709 710 711 712 708 707 703 698 698 699 708 712 706 709 709 701 697 696 697 702 703 710 727 733 729 737 745 740 734 730 727 727 726 729 732 736 740 743 748 752 755 759 763 767 771 773 776 779 782 784 787 789 792 794 794 794 795 796 797 798 799 800 801 802 804 805 807 808 809 811 812 813 813 814 815
726 722 714 712 713 711 714 715 716 716 712 713 711 710 711 706 704 702 697 698 702 708 710 706 709 708 698 695 694 695 700 700 701 711 718 721 733 741 735 729 726 726 726 726 728 730 734 739 742 747 751 755 760 764 767 770 773 777 780 784 788 790 792 794 797 798 798 798 797 797 798 799 800 801 802 803 804 806 807 809 810 811 812 813 814 814
722 716 710 708 710 713 715 714 715 717 714 715 712 711 712 704 704 707 702 703 705 706 707 704 707 706 698 695 693 692 695 697 697 699 705 712 722 731 730 726 725 726 726 725 727 730 735 742 747 750 753 756 762 765 767 770 773 777 781 785 790 793 794 795 797 799 801 801 800 799 799 800 800 801 802 803 804 805 807 808 809 810 811 812 813 814
711 706 704 706 708 712 714 712 714 719 719 715 711 710 708 701 701 703 703 706 709 708 704 703 711 709 700 699 696 691 692 695 696 698 705 710 716 730 738 737 732 727 726 726 729 737 744 748 753 755 756 760 764 767 768 770 773 776 780 784 787 791 794 794 795 796 798 802 804 802 800 800 800 801 802 802 804 805 806 808 809 810 811 812 813 814
704 699 699 705 707 708 711 711 712 718 720 718 713 707 701 699 700 699 701 708 718 720 707 706 724 720 701 698 697 693 695 697 696 699 707 709 715 728 736 738 733 728 731 737 741 748 753 754 756 757 758 763 767 769 770 771 773 776 779 781 782 785 790 793 794 795 797 800 805 804 800 799 799 800 801 801 803 804 806 807 808 810 811 812 813 813
697 693 695 702 705 705 709 710 709 712 718 720 714 707 703 701 700 700 703 712 722 721 705 703 723 724 708 700 695 692 697 699 696 700 706 710 717 725 727 727 728 730 740 748 751 754 757 757 758 759 761 765 769 771 772 774 776 778 780 780 782 785 789 793 795 796 796 797 803 804 799 798 798 798 800 801 803 804 806 807 808 810 811 812 813 813
691 693 695 699 701 704 708 708 705 706 715 716 704 704 708 705 703 703 706 713 713 708 703 701 710 719 714 698 688 692 701 702 698 699 705 707 712 718 719 720 728 739 746 752 757 759 760 761 759 759 763 765 768 771 773 776 778 779 781 782 784 788 792 794 795 796 796 797 801 802 798 797 797 798 799 801 803 804 805 807 808 810 811 812 812 813
689 694 693 694 698 702 703 702 701 704 711 708 696 700 707 706 707 705 707 711 706 707 712 704 707 722 717 692 684 693 701 704 700 700 707 707 707 713 716 720 732 745 748 751 757 759 760 762 759 758 760 764 768 772 775 779 782 782 782 784 786 790 794 795 797 798 797 799 801 800 797 796 797 797 799 801 802 804 805 807 808 809 811 811 812 813
688 689 686 692 700 702 701 699 698 703 708 702 694 699 704 706 707 706 709 708 708 719 720 704 704 724 721 694 685 695 699 701 697 696 705 709 708 711 716 725 735 741 744 747 751 753 753 755 759 760 760 765 770 774 778 780 782 783 784 786 788 791 794 796 797 798 799 802 802 798 796 796 796 797 799 800 802 804 805 806 808 809 810 811 812 812
682 682 685 694 700 697 697 697 695 698 703 699 697 702 707 708 707 709 709 707 719 730 718 698 695 713 723 700 683 689 691 691 693 692 696 702 706 708 712 725 733 734 741 746 749 750 747 750 758 762 762 765 768 772 774 775 778 782 784 786 789 791 793 796 799 801 803 804 801 796 795 795 796 797 798 800 802 803 805 806 808 809 810 811 812 812
680 686 688 692 696 691 692 695 693 695 699 700 703 708 715 718 716 720 718 719 734 734 711 695 692 705 722 704 678 677 680 681 687 689 689 693 699 704 712 723 728 732 741 747 747 746 746 752 757 759 760 762 765 768 770 773 776 781 783 786 788 789 791 796 802 805 805 802 797 795 795 795 796 797 798 800 802 804 805 807 808 809 810 811 811 812
688 692 691 693 693 687 692 697 695 698 699 700 706 714 725 731 734 739 736 733 737 724 702 697 701 706 708 693 674 671 676 679 681 682 683 687 691 698 710 719 722 728 736 739 742 744 747 753 754 755 757 758 761 765 768 771 775 778 781 783 785 787 790 794 799 803 804 799 795 795 795 796 797 798 800 801 803 804 806 807 808 809 810 811 811 812
696 696 692 695 693 685 688 691 697 704 701 700 706 715 723 729 743 752 742 735 733 719 700 694 702 708 698 684 675 669 669 673 675 676 678 682 685 693 706 715 718 725 731 732 737 742 746 749 751 753 755 756 758 761 764 768 772 775 776 779 784 787 790 793 794 798 802 799 796 795 795 796 798 799 801 802 803 805 806 808 809 809 810 811 811 812
699 703 694 692 691 686 683 682 690 700 698 697 697 704 710 711 728 743 734 729 728 718 706 698 703 709 699 684 673 666 664 667 672 674 676 680 683 691 706 715 719 724 727 730 733 739 742 744 748 752 755 756 757 758 761 765 769 771 772 775 782 786 789 791 790 792 799 800 798 797 796 797 798 800 801 803 804 806 807 808 809 809 810 811 811 812
693 698 687 683 683 682 684 680 681 691 696 695 693 700 703 693 701 719 718 713 716 716 711 706 703 695 684 675 668 666 668 671 675 676 679 686 687 695 710 717 721 724 724 727 732 737 741 743 747 750 754 757 758 759 760 763 768 771 773 777 783 786 788 789 787 788 795 800 800 798 798 798 799 800 801 803 804 806 807 808 809 809 810 811 811 812
691 693 679 679 683 680 683 680 676 684 693 696 699 699 691 679 686 708 716 708 713 724 714 705 706 694 684 684 676 671 673 676 682 682 684 689 691 701 713 716 720 723 721 724 729 735 740 743 746 749 753 757 760 761 761 763 767 771 775 779 783 786 787 788 786 786 792 798 799 799 799 800 801 802 802 803 805 806 807 808 809 809 810 810 811 811
684 689 676 678 689 683 680 680 677 676 682 693 701 692 681 681 684 694 715 721 725 732 715 703 709 704 701 700 686 680 683 682 685 687 687 689 692 703 711 714 716 718 719 722 727 734 739 741 745 748 752 756 758 761 762 764 767 770 774 778 781 784 786 787 786 786 791 795 797 799 800 801 802 803 803 804 805 806 807 808 808 809 810 810 810 811
675 686 682 679 688 685 680 687 688 679 676 682 687 680 680 697 699 692 706 722 730 734 719 705 706 705 701 694 684 686 690 687 686 686 688 690 692 698 705 710 714 717 720 724 728 734 737 740 745 748 751 754 756 759 761 763 767 770 773 776 780 783 785 786 786 787 790 793 796 800 801 802 803 803 804 805 805 806 807 807 808 809 809 809 810 811
669 684 694 685 681 684 686 692 695 689 683 680 679 678 679 689 695 690 692 704 720 729 722 711 710 704 690 678 677 683 685 685 686 684 686 689 691 693 697 703 711 716 721 725 729 733 736 740 745 747 750 752 754 757 759 763 766 769 772 775 778 782 784 785 786 788 790 793 797 800 801 802 803 804 805 805 806 806 806 807 808 808 809 809 810 811
667 679 697 691 680 688 693 690 687 686 690 691 686 685 685 684 684 687 690 692 702 716 719 720 717 698 675 665 668 674 678 680 680 681 682 685 688 691 692 700 708 713 720 726 729 732 735 740 744 746 749 751 753 756 759 762 766 768 772 775 778 781 783 785 786 788 791 794 797 800 801 802 803 804 805 805 806 806 806 807 808 808 808 809 810 810
671 676 692 695 690 692 689 680 676 674 679 689 687 680 681 683 688 701 707 694 687 696 703 713 716 694 669 662 661 664 672 675 673 675 678 680 686 689 690 699 707 712 720 726 728 731 734 738 742 745 748 750 752 756 759 762 765 768 771 774 778 781 782 785 786 789 792 795 798 800 801 803 803 805 806 806 807 806 806 807 807 808 808 809 810 810
668 675 688 692 688 685 679 673 675 672 672 680 683 675 674 678 686 702 710 697 689 690 685 692 706 694 671 662 661 664 669 670 669 672 676 680 685 689 693 700 708 714 720 724 727 731 733 737 742 744 747 750 752 756 759 762 765 768 771 774 777 779 782 784 787 790 793 796 799 801 802 803 804 805 806 807 807 806 806 807 807 808 808 809 810 810
669 678 686 688 683 677 673 671 673 673 674 677 678 675 675 674 676 685 689 687 692 694 686 692 704 698 680 669 668 669 670 673 676 676 680 686 689 693 700 706 711 716 721 723 726 730 734 738 741 743 746 749 752 756 759 762 765 768 771 773 776 778 781 784 787 790 793 796 799 802 803 804 805 806 807 807 807 806 806 807 807 808 808 809 810 810
677 682 683 689 692 689 685 684 683 681 676 673 674 677 675 670 673 682 681 684 696 693 686 696 703 696 685 677 675 675 675 680 684 682 685 691 695 701 706 709 713 717 720 722 726 730 733 736 739 741 745 748 752 755 758 761 764 767 769 772 775 778 781 784 787 790 793 797 800 802 803 804 806 806 807 808 807 806 807 807 808 809 809 810 810 811
678 678 676 686 694 696 696 691 686 684 678 672 673 677 678 673 676 685 688 695 703 694 686 692 697 696 692 685 682 681 680 685 690 691 694 698 703 707 709 712 716 718 720 722 725 729 732 735 738 739 743 747 751 754 756 760 763 766 769 772 775 778 781 784 788 791 795 798 801 802 803 805 806 806 807 807 807 807 807 808 809 810 810 810 811 811
677 673 670 675 680 682 685 677 669 674 680 680 678 677 679 677 673 678 690 698 696 693 692 687 687 700 703 691 687 685 684 690 696 698 701 704 707 709 710 715 720 721 721 722 725 728 731 734 736 737 741 746 750 753 756 759 763 766 770 773 777 780 782 786 789 793 796 799 801 803 804 805 806 806 806 806 807 808 808 809 810 811 811 811 811 811
679 677 669 670 671 667 668 668 667 672 679 682 681 679 678 678 676 678 688 691 685 692 700 685 679 693 695 687 687 686 687 696 701 701 703 706 708 709 712 719 724 725 724 724 726 729 731 735 737 738 741 746 751 755 757 760 764 768 772 775 778 781 784 787 790 794 797 800 802 804 805 805 805 804 805 806 807 809 810 811 811 811 812 812 812 812
678 679 671 672 672 663 661 667 668 670 675 677 678 679 676 677 679 681 685 684 681 691 696 684 679 684 683 685 687 684 687 697 701 701 704 707 709 710 715 722 725 726 726 726 727 730 734 737 738 741 745 749 753 757 759 762 766 770 774 777 780 783 786 788 791 794 797 800 803 805 805 805 805 804 805 807 808 810 811 811 812 812 813 813 813 814
675 677 673 674 677 674 671 671 667 666 671 672 674 677 676 676 678 680 683 681 680 687 685 679 683 681 676 682 684 681 685 693 697 701 704 708 712 714 717 722 725 727 726 726 728 732 736 739 741 745 749 752 757 759 762 765 768 772 776 778 781 784 786 788 791 794 798 801 804 805 805 805 805 805 807 808 810 811 811 812 813 813 814 814 815 816
674 676 672 674 683 685 681 678 674 671 671 672 675 676 676 679 679 679 682 681 685 689 684 683 692 685 674 679 685 686 689 692 697 703 706 708 713 715 717 720 724 726 725 726 730 734 737 741 745 748 752 756 759 762 765 768 772 775 777 779 781 783 786 788 790 795 800 803 804 805 805 805 806 807 809 810 811 812 812 813 814 814 815 816 817 817
678 678 673 677 690 691 686 687 688 682 680 681 680 677 677 680 681 680 681 681 685 690 689 693 696 686 677 683 689 692 695 697 700 703 705 708 713 715 716 718 722 724 724 728 733 737 740 743 747 752 755 758 761 764 767 770 773 777 779 782 784 786 788 789 790 796 801 803 804 805 805 806 807 808 810 812 812 813 814 814 815 816 817 817 818 818
679 681 678 680 691 691 688 691 693 694 697 693 681 673 675 677 678 679 681 680 682 686 691 696 690 678 679 688 694 696 699 700 701 702 704 707 711 714 714 717 722 725 728 733 737 741 745 747 750 755 758 761 764 766 769 772 774 777 781 784 787 790 793 793 793 798 801 802 804 805 806 807 808 810 812 813 814 814 815 816 816 817 818 818 819 819
677 681 681 679 686 690 688 689 699 708 709 697 678 668 670 673 675 679 681 680 680 681 683 685 679 673 677 686 691 695 697 698 700 700 701 704 709 713 716 719 723 726 731 737 740 744 748 751 755 759 760 763 766 768 771 774 776 778 782 785 788 792 796 796 796 799 801 802 804 805 807 808 809 812 814 814 815 815 816 817 817 818 819 819 820 821
678 681 681 679 683 690 690 694 710 719 709 693 683 674 671 672 674 678 680 677 676 679 679 678 676 677 683 686 686 690 694 698 700 701 701 703 707 713 717 720 723 727 733 738 741 746 751 754 758 761 763 765 767 769 773 776 778 780 783 787 789 793 796 797 798 800 801 802 804 805 807 808 810 813 815 815 816 816 817 818 818 819 820 820 821 822
679 681 681 680 684 695 704 707 712 714 704 695 691 684 680 681 681 685 689 683 676 676 678 678 676 678 686 688 685 687 694 700 704 705 704 704 708 714 718 720 724 729 734 738 743 748 752 755 759 762 765 768 769 772 774 776 779 782 785 788 791 793 796 797 799 801 802 802 804 806 807 809 812 814 816 816 817 818 819 820 820 820 821 821 822 823
676 679 682 685 686 692 704 706 702 705 706 701 695 687 685 685 683 688 695 690 678 675 677 678 677 678 683 685 684 688 695 703 710 712 708 706 710 715 718 722 728 732 736 741 745 749 753 756 758 760 764 768 771 773 775 777 780 783 786 789 792 794 796 798 799 801 802 803 805 806 808 811 813 815 816 817 818 819 820 820 821 822 822 823 824 824
674 676 681 689 690 689 696 700 700 706 708 699 689 683 682 683 679 681 691 691 679 674 677 678 678 679 682 685 687 691 697 704 711 713 710 709 711 714 718 724 730 734 738 742 745 749 753 757 758 760 763 767 771 774 776 779 782 784 787 790 792 795 797 798 800 801 802 804 806 807 809 812 814 816 817 818 819 820 821 821 822 823 823 824 824 825
677 675 677 686 691 692 697 700 700 703 702 694 687 682 681 684 681 682 694 696 681 673 676 678 679 680 683 687 689 692 697 703 706 707 708 710 711 714 719 725 730 734 738 742 746 748 752 756 758 761 764 767 771 775 777 780 782 784 787 790 793 795 797 798 800 801 803 805 807 808 810 812 814 816 818 819 820 821 822 822 823 823 824 825 825 826
684 682 683 689 692 692 695 697 696 699 697 691 689 686 682 683 686 693 706 705 691 680 677 676 678 680 685 690 692 692 696 699 699 701 706 710 712 716 721 725 730 734 738 743 746 749 753 757 759 762 765 769 772 775 778 780 783 786 789 791 793 795 797 799 801 802 804 806 808 809 811 813 815 817 818 820 821 822 822 823 823 824 825 826 827 827
689 689 688 690 691 690 694 695 694 699 698 690 688 689 684 684 693 703 708 704 697 690 682 678 681 684 689 694 694 693 695 694 693 698 705 710 715 718 721 726 731 734 737 742 747 750 754 758 760 763 767 770 773 775 778 780 783 787 790 792 794 796 798 800 801 803 805 807 809 811 812 814 816 818 819 821 822 822 823 824 824 825 826 827 828 829
692 692 690 689 689 688 690 690 692 700 701 692 687 687 685 691 702 707 703 698 697 694 687 686 690 691 691 695 695 694 695 693 693 699 705 711 717 720 722 726 731 735 738 743 748 751 753 757 761 764 768 771 773 776 778 781 785 788 790 793 795 797 799 800 802 804 806 808 810 812 813 815 817 819 820 821 822 822 823 824 826 827 827 829 830 830
688 692 691 689 686 687 690 691 695 704 703 693 690 690 692 699 706 706 702 698 696 692 688 690 695 693 692 695 697 697 697 696 698 703 708 713 717 720 723 727 730 734 740 745 749 751 753 757 761 765 768 771 774 776 779 783 786 788 791 794 796 798 800 801 802 804 806 809 811 813 814 816 818 819 821 822 823 824 824 825 827 828 829 830 831 831
691 694 693 688 684 688 695 698 701 704 701 695 697 700 700 702 703 702 702 700 697 694 690 690 695 695 692 695 699 700 700 702 704 707 712 716 719 722 725 727 731 737 742 746 748 751 754 758 761 765 769 772 775 778 781 784 786 789 792 795 797 799 801 802 804 806 807 810 812 814 815 817 818 820 821 822 824 825 825 826 827 828 830 831 831 832
695 694 694 697 696 693 695 699 702 702 699 697 700 702 701 701 701 701 702 700 697 696 693 691 694 695 694 697 702 704 705 706 708 711 715 718 721 723 726 729 734 740 743 745 749 752 755 758 761 766 770 773 776 780 783 785 788 790 793 796 798 800 801 803 805 807 808 811 813 815 816 817 819 820 822 823 825 826 826 827 828 828 830 831 831 832
691 689 691 702 707 702 698 700 700 700 702 701 701 702 702 701 701 701 700 698 696 696 696 695 696 696 697 700 704 707 709 709 711 714 717 720 723 726 728 732 737 741 743 745 749 752 754 758 763 767 771 775 778 781 784 787 789 791 794 797 799 800 802 804 806 807 809 811 813 815 817 818 820 821 822 824 825 826 827 827 828 829 830 831 832 833
687 687 688 693 698 700 702 702 700 701 704 703 701 703 703 702 701 701 701 700 698 697 698 699 700 700 701 702 704 709 711 711 714 717 720 723 726 728 730 734 739 742 744 746 750 753 755 759 764 768 772 775 778 781 785 788 790 792 794 797 799 801 803 804 806 808 809 812 814 816 817 819 820 821 823 824 825 827 828 828 829 831 831 832 833 834
690 688 687 686 691 699 700 698 700 702 703 702 700 701 702 703 704 703 702 703 701 699 700 702 703 703 705 705 707 710 712 713 716 720 722 725 728 730 734 738 740 743 745 749 752 754 757 761 765 768 772 776 779 783 786 788 791 793 795 797 799 801 803 805 807 808 810 812 815 817 818 820 820 821 823 824 826 827 828 830 831 832 832 833 834 834
693 693 688 683 696 710 706 697 698 701 700 701 702 703 705 707 707 706 705 704 702 702 703 705 706 705 706 707 709 712 714 714 717 721 725 728 731 734 737 740 742 745 748 751 754 755 757 761 765 769 774 778 781 784 787 789 791 794 796 798 800 802 804 806 808 809 811 813 816 818 819 819 820 821 824 826 827 828 829 831 833 834 834 835 835 835
694 702 698 691 700 713 710 703 702 704 704 706 708 710 712 711 709 708 707 705 705 704 705 708 709 708 708 710 711 713 714 716 719 723 727 731 734 736 738 741 743 746 749 753 756 757 758 761 766 771 775 779 782 785 787 790 792 795 797 799 801 803 805 807 808 810 812 814 817 818 818 819 821 824 826 828 830 831 833 834 835 835 836 837 838 838
702 708 708 704 707 709 706 705 706 707 709 711 713 714 714 711 710 710 710 710 710 709 707 709 711 711 712 713 714 714 715 717 721 725 729 734 737 739 741 742 744 747 750 752 755 757 760 763 768 773 777 780 783 786 788 791 793 795 798 800 802 804 806 807 808 811 813 816 818 819 820 821 824 826 828 830 832 833 835 836 837 838 839 839 840 840
Wind_Speed
13 11 14 16 17 19 20 21 20 19 16 15 14 12 15 15 9 12 12 12 16 15 15 18 17 21 19 12 15 15 16 18 15 12 9 9 9 7 10 15 17 17 15 17 23 26 26 27 27 26 26 25 23 24 26 25 24 22 22 22 23 22 20 19 18 18 18 17 16 16 15 15 14 14 13 12 11 9 9 8 7 6 6 6 5 5
14 14 17 20 20 20 21 21 21 21 20 14 12 12 14 14 9 14 13 11 13 13 13 18 17 20 21 13 14 15 16 17 17 17 17 16 14 11 15 18 17 15 14 16 20 25 26 26 27 26 26 26 25 23 24 24 23 20 20 21 22 19 16 15 15 14 14 14 15 14 14 14 13 13 12 12 11 10 9 9 8 7 7 6 5 5
14 15 19 21 20 19 19 20 21 22 20 13 10 11 11 11 10 14 14 12 12 10 10 18 17 16 20 17 15 17 16 15 16 18 18 18 17 17 20 19 17 15 15 17 19 21 24 26 26 24 23 24 22 21 21 21 20 18 16 16 16 15 13 13 12 10 9 10 12 13 12 11 12 11 10 10 11 10 9 9 8 7 6 5 4 4
13 14 19 20 19 20 19 21 22 19 16 12 10 10 9 12 12 10 11 11 10 10 10 15 15 13 16 18 16 16 17 15 16 18 16 13 10 9 10 10 14 17 16 19 20 17 18 20 18 17 20 20 19 21 21 19 18 16 15 14 13 13 14 13 12 10 7 7 8 10 10 9 10 10 9 10 10 9 9 9 7 6 5 4 3 4
14 13 17 20 19 22 21 20 20 15 12 13 14 12 10 13 15 9 9 11 10 11 13 13 11 11 14 17 16 15 17 16 16 17 15 12 9 6 2 5 10 16 15 16 15 10 7 10 13 13 15 16 18 20 19 17 19 17 18 20 16 14 14 13 12 13 10 6 7 9 10 10 10 11 10 10 9 8 8 7 6 5 4 3 3 3
15 14 17 22 21 23 22 18 19 16 11 13 15 16 12 11 14 13 10 11 10 11 13 12 9 10 13 17 16 13 16 17 16 17 16 14 10 10 9 6 13 13 5 1 4 7 5 9 12 9 13 18 17 16 16 17 20 20 21 24 23 21 20 16 13 14 13 10 10 12 12 11 11 10 9 9 8 7 7 6 6 6 4 3 2 2
12 16 18 21 22 23 22 16 19 20 12 10 15 18 17 13 14 15 11 10 8 8 13 14 10 7 11 17 18 15 16 18 18 17 19 17 13 11 11 11 11 8 7 10 11 11 9 9 9 11 17 18 15 14 15 15 17 20 20 23 26 23 19 16 13 14 14 15 14 15 12 11 10 10 9 8 8 7 7 7 6 6 4 2 1 2
13 19 19 22 23 20 18 15 18 21 14 9 14 18 19 16 13 13 12 10 8 7 12 17 14 9 9 15 18 17 17 18 19 18 17 18 17 14 12 10 6 5 13 12 9 10 8 6 8 12 15 15 15 15 14 13 14 17 16 16 20 18 14 14 15 16 16 16 17 17 12 10 10 10 10 9 8 6 7 6 5 5 3 2 1 3
15 20 19 21 20 15 15 14 17 20 15 11 13 15 18 17 12 11 12 10 9 9 10 15 15 11 9 12 16 19 20 20 21 19 15 15 14 13 13 10 12 16 17 15 11 9 8 9 11 17 19 16 17 17 13 12 12 14 12 11 13 13 13 14 15 17 16 16 18 16 12 10 9 10 10 9 9 7 6 6 5 3 2 1 2 2
13 17 16 16 14 12 14 16 18 19 15 13 13 13 16 16 13 12 11 9 9 10 10 14 17 11 9 11 13 17 19 19 19 18 16 17 15 15 15 12 18 18 17 15 15 12 15 19 19 19 20 18 18 17 15 13 12 11 11 11 11 10 11 12 14 14 15 17 19 14 12 11 10 10 9 8 8 7 6 5 4 2 1 0 2 2
14 15 14 13 13 13 16 17 18 18 16 15 12 11 14 14 11 10 8 8 8 10 13 17 19 14 10 11 11 13 15 17 17 16 17 19 19 17 14 17 19 16 14 12 13 11 16 23 21 18 22 24 23 21 22 20 16 14 13 11 11 10 10 11 12 13 16 18 15 11 11 10 10 10 8 8 8 6 6 5 3 1 1 2 3 3
15 14 13 13 15 16 15 16 17 17 18 16 10 9 11 10 9 8 7 8 8 10 13 17 18 16 12 10 11 12 14 16 16 16 18 19 20 17 14 18 18 16 15 13 12 10 12 15 18 21 24 27 27 26 27 26 20 16 16 15 16 15 14 13 12 15 17 15 10 9 10 10 10 9 8 8 8 6 5 3 2 2 2 3 3 3
13 13 15 15 17 18 15 14 14 15 17 15 11 11 10 9 9 9 9 9 9 11 11 15 18 16 12 12 13 13 16 17 16 16 17 17 18 17 17 19 16 15 15 15 12 9 11 13 15 21 23 25 26 24 26 27 21 18 20 20 20 18 18 17 16 14 15 10 8 9 10 11 10 9 9 8 7 5 4 3 1 1 2 3 3 3
12 13 18 18 14 17 17 14 12 12 15 15 12 12 12 9 9 10 10 10 11 10 10 15 17 14 10 11 16 16 15 18 17 17 17 17 17 14 18 20 16 15 15 14 13 12 13 15 17 21 21 21 24 25 25 25 22 22 24 23 20 19 20 19 16 10 8 5 7 9 11 11 10 10 9 8 6 4 3 3 1 1 2 2 3 3
14 12 16 18 12 15 20 16 13 13 15 15 13 12 12 10 9 9 9 10 10 10 11 14 13 12 10 9 14 16 8 9 13 15 13 12 13 10 18 21 18 17 17 15 16 15 14 17 21 23 21 20 24 27 25 23 22 23 25 25 22 22 23 21 18 13 6 4 6 8 10 10 9 9 8 7 6 3 3 2 1 1 1 2 3 3
16 11 13 18 13 16 20 17 16 16 14 12 12 13 12 11 9 7 8 8 7 7 10 10 8 8 8 4 9 13 8 7 8 9 9 8 10 12 17 19 17 16 17 16 16 16 15 19 23 23 20 19 23 25 25 24 24 23 24 26 25 24 24 22 20 18 12 8 7 8 9 10 9 8 8 7 6 4 3 2 1 1 1 1 2 3
14 10 15 20 16 17 19 18 18 15 10 10 12 14 12 13 11 7 8 6 5 7 8 8 8 8 7 5 7 11 10 12 10 8 8 9 12 16 16 15 15 14 16 16 16 15 16 18 21 21 20 19 20 22 24 26 27 26 26 27 26 23 22 21 20 20 17 12 9 9 9 9 9 8 8 7 6 4 3 3 2 2 2 2 2 3
11 9 15 21 18 18 19 18 17 15 12 9 11 13 12 13 12 8 8 5 6 9 7 10 13 11 8 8 10 12 11 11 13 12 11 11 12 14 13 13 14 14 14 16 16 16 16 18 19 20 20 21 21 22 23 26 27 26 25 25 23 21 20 19 19 20 18 15 12 10 9 9 8 7 7 6 5 4 4 3 3 3 3 2 2 3
12 8 13 19 18 17 19 17 15 17 18 13 11 11 10 11 12 10 9 8 9 9 7 11 15 12 10 9 11 16 15 13 14 13 13 14 14 13 14 15 14 14 13 14 15 15 15 16 18 20 21 22 22 23 23 24 25 25 24 24 22 20 19 19 20 20 18 16 14 11 8 8 7 7 6 5 5 4 4 4 3 3 3 3 3 3
12 7 9 16 18 16 15 14 12 14 17 15 12 12 10 8 10 10 8 7 8 9 8 11 12 10 11 11 11 15 16 16 16 14 14 15 14 13 13 15 15 14 14 13 13 15 15 16 18 21 22 23 23 24 24 24 24 24 24 23 22 20 19 19 20 19 18 16 13 10 8 7 6 6 5 4 4 4 4 4 4 4 4 3 3 3
11 8 8 13 17 14 12 12 14 15 15 13 12 13 12 9 8 9 8 8 8 8 8 8 9 8 7 9 12 13 14 15 15 15 14 14 14 13 12 15 15 15 15 14 13 15 16 16 19 22 23 24 24 24 24 24 24 23 23 23 22 21 20 20 19 17 16 14 11 10 8 7 6 5 4 4 4 5 5 5 5 5 4 4 3 3
9 8 8 10 13 13 13 14 17 17 16 13 11 12 13 11 9 9 10 11 9 8 8 7 8 6 4 6 10 11 11 13 15 16 14 13 14 13 12 16 16 15 16 15 14 16 16 17 20 23 23 24 25 24 23 24 24 23 23 24 23 21 20 19 18 16 15 13 11 10 8 6 5 4 4 4 5 6 6 6 5 5 5 4 4 4
8 6 9 10 11 12 15 17 17 18 18 16 13 12 12 12 12 10 10 11 10 9 8 8 8 3 2 1 5 7 8 8 8 10 10 10 12 11 12 16 16 15 16 16 17 17 15 17 19 21 22 22 22 23 23 23 23 23 24 24 23 21 20 19 17 16 14 13 11 9 7 6 5 4 5 5 5 6 6 6 6 6 6 6 5 5
7 6 8 10 10 11 14 17 17 17 18 17 15 14 13 14 14 12 9 8 8 10 9 7 8 4 3 4 4 5 6 6 6 8 10 9 9 11 14 15 15 16 17 18 18 17 16 18 19 20 21 22 22 23 23 24 24 24 24 24 23 22 21 19 17 15 14 12 10 8 7 6 5 5 6 6 6 7 7 7 7 7 7 7 6 6
6 8 9 9 10 12 13 14 15 16 16 13 13 16 17 17 16 13 10 7 7 12 12 9 7 5 3 1 3 5 8 9 7 8 10 10 11 13 14 13 14 16 19 20 19 19 19 20 19 20 22 23 23 24 24 25 25 25 25 24 23 23 20 18 17 16 14 12 11 9 8 7 7 7 7 6 7 8 8 8 7 8 8 8 8 8
8 9 10 9 11 13 12 12 12 13 13 11 14 19 19 20 19 14 10 8 8 11 12 11 6 6 5 3 6 8 10 11 10 9 10 10 11 12 12 13 13 15 18 19 19 19 20 19 18 19 22 23 23 24 25 26 26 25 24 24 23 22 20 19 18 16 14 13 11 10 9 9 9 9 8 8 8 8 8 8 8 8 9 9 9 9
7 9 12 12 11 11 11 10 10 12 13 13 16 20 19 20 20 16 10 9 8 8 9 11 9 8 7 8 9 9 10 11 11 10 10 10 11 12 13 13 12 13 16 16 16 17 17 17 17 18 22 23 22 24 25 26 25 24 23 23 22 21 21 19 17 15 13 12 10 10 11 11 11 10 10 9 9 9 9 9 8 9 9 9 9 10
6 9 15 14 12 13 12 11 12 13 15 16 17 19 19 20 21 17 13 12 11 8 8 12 14 12 8 10 10 10 11 12 10 10 10 10 11 12 13 13 13 14 15 15 15 15 15 14 13 14 19 21 21 23 25 25 24 23 23 22 21 20 20 18 16 14 12 11 11 11 12 12 11 11 11 10 9 9 9 9 9 9 9 9 10 10
6 9 14 14 13 11 10 12 15 16 16 17 18 18 18 20 21 18 15 15 14 10 8 10 14 14 8 10 11 12 13 12 9 9 10 10 11 12 13 15 14 15 17 16 15 14 13 12 12 12 15 17 18 20 21 20 20 21 21 21 20 19 18 17 15 14 12 11 11 12 12 12 11 12 11 11 10 10 10 10 10 9 10 10 10 10
8 7 12 14 12 8 7 9 13 15 17 18 18 18 17 17 19 18 17 17 15 13 12 9 9 12 8 8 10 11 12 11 9 9 10 12 13 13 14 15 14 14 16 15 14 14 14 13 13 13 15 16 16 17 18 19 19 20 21 21 20 19 18 17 15 14 12 11 11 12 12 12 12 12 12 11 11 10 10 11 10 10 11 11 11 10
9 6 11 13 9 8 8 7 8 10 13 16 17 18 18 17 18 18 17 17 15 14 14 8 6 9 6 11 12 10 10 11 11 10 11 12 14 15 15 15 14 14 14 14 13 13 13 14 13 13 15 17 20 23 25 24 21 20 20 20 19 18 17 17 17 15 13 12 12 12 12 12 13 13 12 11 11 11 11 11 11 11 12 11 11 11
8 5 9 10 8 8 7 6 8 10 12 15 17 19 19 17 16 15 15 15 15 14 14 9 6 6 7 14 12 9 10 11 12 11 10 11 14 15 15 15 15 14 12 12 12 11 12 14 14 14 16 19 24 28 28 26 23 20 18 18 17 17 16 18 20 17 14 14 14 13 13 13 13 13 12 12 11 12 12 12 12 12 12 12 12 12
8 5 7 9 8 7 8 7 7 9 12 12 13 16 19 17 16 15 15 15 15 13 11 9 8 6 8 13 11 10 11 11 11 10 10 12 15 14 13 15 16 14 12 12 13 13 12 14 17 19 19 20 23 24 24 24 23 20 19 20 20 18 17 18 20 18 16 15 14 13 13 14 14 14 13 12 12 12 12 12 13 13 12 13 13 13
9 6 6 7 6 7 9 6 2 6 10 6 3 10 16 16 16 17 16 16 16 14 10 9 10 6 4 11 12 11 11 11 10 10 10 12 13 11 12 15 16 16 15 15 17 17 14 15 19 21 21 21 22 22 22 22 22 23 22 21 21 19 17 17 18 17 16 16 15 14 14 14 14 14 13 12 12 13 13 13 13 13 13 13 13 13
10 7 5 6 5 4 6 6 3 5 5 0 3 3 7 9 13 15 15 16 17 16 14 13 10 4 2 3 9 10 8 9 10 10 10 12 13 12 13 15 17 18 19 18 19 19 17 17 18 19 19 21 22 22 22 22 23 24 22 20 19 18 17 16 17 16 16 16 16 15 15 15 14 14 13 12 13 13 13 13 13 13 12 13 13 13
8 7 5 6 5 3 5 5 5 3 1 2 0 2 2 5 10 12 12 14 15 15 15 14 10 6 3 4 8 10 9 9 8 8 10 12 13 14 15 15 16 18 19 18 19 19 19 20 21 20 20 20 20 20 20 21 22 22 20 18 17 17 16 16 16 16 16 16 16 15 15 15 15 14 13 13 13 14 13 13 13 13 12 13 13 12
8 7 5 6 6 4 4 6 4 3 1 4 4 3 3 5 9 11 10 10 12 12 11 12 12 9 6 5 7 11 13 11 8 7 10 12 14 16 17 17 17 18 19 20 21 21 21 23 24 25 24 22 20 20 20 20 20 19 19 18 17 17 17 16 16 16 16 16 16 15 15 15 16 15 14 14 14 14 13 13 13 13 12 13 13 12
9 8 7 6 5 4 4 5 5 4 3 4 5 6 3 2 5 8 10 9 12 14 13 12 12 10 8 7 9 13 12 9 7 8 10 13 14 16 18 19 19 21 23 23 23 23 23 24 25 25 26 24 22 21 20 20 19 18 19 18 17 17 17 17 17 16 16 16 16 16 16 16 16 15 15 14 14 13 13 13 13 13 13 13 13 12
10 9 7 7 6 5 6 5 5 5 2 1 5 7 5 2 1 4 8 8 7 10 14 14 12 9 9 9 11 12 10 7 7 8 11 14 15 15 17 18 19 23 26 25 24 24 24 25 25 25 25 24 22 21 20 19 18 18 18 17 17 17 17 17 16 16 16 17 16 16 17 16 16 15 15 14 14 14 14 14 13 13 13 12 12 12
9 7 7 8 7 7 7 5 3 2 1 3 3 4 4 4 2 5 10 5 4 4 7 12 12 10 10 10 9 10 8 4 4 9 14 15 14 14 17 19 19 23 26 25 25 26 25 25 25 25 24 23 22 21 20 19 18 18 17 18 18 17 17 17 17 17 17 17 17 17 17 16 15 15 15 15 14 14 14 14 13 13 13 12 12 12
7 7 7 8 7 6 7 7 2 2 2 3 2 4 3 4 3 5 7 2 5 7 4 4 6 10 10 9 8 7 3 1 4 13 17 16 14 14 17 21 24 26 27 26 26 27 26 25 25 24 23 22 22 21 19 18 18 18 18 19 18 18 19 18 18 18 17 17 17 17 17 16 14 14 14 15 15 15 14 14 13 13 13 12 13 13
7 7 6 7 7 5 6 7 4 2 1 4 1 5 3 1 3 2 1 2 4 4 3 1 6 9 9 8 6 2 1 4 10 17 18 17 16 15 15 20 24 25 26 27 27 27 26 26 25 24 23 22 21 20 18 18 18 18 19 19 19 19 19 19 18 18 18 17 17 17 17 15 13 13 14 15 15 15 15 14 13 13 13 13 13 13
5 5 6 6 6 5 5 6 5 3 0 3 0 3 2 1 1 1 1 2 2 2 0 4 6 6 7 8 5 3 5 9 14 17 17 17 18 17 16 19 22 23 26 27 26 26 26 26 25 24 23 21 20 18 18 18 19 19 19 19 20 20 19 18 19 19 18 18 18 17 17 16 15 15 15 15 15 15 15 14 13 13 13 13 13 13
2 3 4 4 3 5 5 4 1 2 3 4 3 3 4 4 3 2 2 0 1 2 1 3 5 5 5 6 7 6 8 10 13 15 16 16 17 18 17 18 21 24 26 26 26 27 26 25 25 24 22 20 19 18 17 18 19 20 20 20 21 21 20 19 20 20 19 19 19 18 18 18 18 17 16 15 15 15 14 14 13 13 12 11 11 12
1 1 1 1 2 1 1 3 3 2 2 4 5 4 4 4 3 3 5 2 2 3 3 2 3 4 4 7 9 7 7 10 13 15 14 14 16 17 17 19 23 25 25 26 27 27 26 25 25 23 21 19 18 18 17 18 20 21 21 21 21 20 19 20 20 20 20 21 21 20 19 19 18 17 16 15 15 14 14 13 12 11 11 10 10 10
3 3 4 3 2 2 4 5 4 4 4 3 4 3 2 2 2 2 4 3 4 4 4 3 3 3 4 7 9 7 7 10 13 13 13 13 14 15 16 19 23 24 25 26 27 26 26 26 25 23 21 19 18 17 17 18 19 21 21 20 20 19 19 20 21 21 21 21 21 20 19 18 17 17 16 15 14 13 12 11 11 10 10 9 9 9
5 3 2 3 5 5 3 4 5 4 4 4 4 3 2 1 1 1 2 3 4 4 4 4 3 3 4 5 8 8 9 11 12 12 12 13 13 14 15 17 20 22 24 26 26 26 26 26 23 22 21 19 18 17 17 18 19 19 20 21 20 19 20 21 22 22 22 21 20 19 18 18 17 17 16 14 13 12 11 11 10 9 8 8 8 9
2 2 4 3 3 1 2 6 7 5 5 4 3 2 2 2 2 2 2 2 3 3 4 4 2 3 4 5 8 9 9 12 12 12 12 12 10 11 13 14 17 20 22 24 25 27 26 24 22 22 21 19 18 18 18 18 19 19 21 21 20 20 21 21 21 22 22 21 20 18 18 17 17 17 15 13 12 11 10 10 10 11 12 10 8 7
1 3 4 2 3 2 2 4 6 6 6 5 2 2 4 3 2 2 2 1 2 1 2 3 1 2 4 6 9 9 9 11 13 13 12 10 8 9 11 13 16 19 22 24 24 25 26 24 22 22 21 19 19 19 19 19 20 20 21 20 20 21 22 22 22 21 21 20 19 18 17 17 16 15 14 15 16 16 15 13 11 13 15 14 12 9
2 3 5 3 2 3 2 3 3 3 4 5 4 3 3 1 2 2 3 2 2 1 2 2 1 2 3 4 7 10 10 10 13 15 14 10 8 10 13 16 17 19 23 26 24 22 23 24 23 22 21 20 20 20 20 20 20 20 20 20 21 22 22 23 22 21 20 19 19 18 17 16 15 14 14 15 17 18 19 17 15 15 15 14 12 11
4 4 6 4 2 4 6 6 4 2 3 4 4 2 1 2 2 2 2 3 3 3 1 1 2 4 3 1 1 6 10 11 13 15 15 12 11 13 15 17 18 19 22 26 25 23 23 25 24 23 22 21 21 21 21 21 20 20 19 19 20 22 22 22 21 20 19 18 18 17 16 16 16 16 16 16 17 17 18 19 19 18 16 14 12 11
Wind_Direction
193 199 206 210 209 206 207 211 217 227 231 225 220 212 219 226 211 215 214 173 188 205 206 208 207 219 227 201 192 193 197 199 169 165 212 197 176 186 197 200 200 196 190 184 179 176 174 168 163 166 169 169 168 164 164 168 168 166 162 159 164 169 167 168 170 171 169 168 169 169 169 172 174 174 173 170 167 165 157 152 155 158 164 167 169 182
196 209 213 208 209 209 206 212 215 223 232 233 229 216 216 224 207 209 209 164 188 213 207 211 212 216 221 208 197 197 199 202 183 178 196 193 176 186 207 204 199 195 188 185 180 178 175 168 166 167 167 167 166 164 163 166 167 163 161 161 165 167 168 176 179 176 173 171 171 171 172 173 171 170 170 165 162 158 152 153 160 164 168 170 173 186
202 216 214 206 209 212 207 211 215 220 226 229 234 225 212 214 203 202 197 169 190 217 208 208 214 218 218 214 207 200 203 206 199 194 191 190 183 186 199 196 192 195 190 187 184 180 174 168 165 162 164 166 161 154 157 163 161 155 156 158 159 164 173 181 185 188 187 186 180 172 173 172 163 163 163 155 153 153 153 157 160 163 166 167 174 188
204 212 211 205 205 212 211 209 212 217 222 223 226 222 207 204 203 199 187 176 194 217 222 213 211 219 217 216 213 204 205 207 205 203 193 194 192 188 208 200 191 197 193 190 188 179 170 162 153 157 166 159 144 148 158 157 149 145 151 149 146 163 182 181 179 189 192 202 202 177 167 166 153 149 149 143 146 151 152 155 155 155 162 165 180 201
210 202 202 206 202 209 214 208 207 212 215 216 218 217 209 204 209 210 181 178 200 218 230 229 213 215 216 214 210 202 205 208 207 201 192 194 179 150 229 281 241 215 199 196 186 164 153 137 142 169 168 144 140 156 161 147 139 140 150 156 153 166 189 189 180 180 175 193 222 191 163 157 147 144 151 150 148 153 152 152 150 150 156 159 183 216
212 198 193 203 204 207 212 207 203 207 209 209 216 227 234 221 215 217 192 181 202 210 214 226 221 209 212 214 209 199 202 208 207 197 193 196 178 160 171 210 249 237 186 100 79 96 110 128 141 142 116 122 140 153 149 145 149 152 158 167 169 174 183 184 180 180 173 176 204 203 174 159 154 150 157 157 152 156 150 145 143 141 143 151 200 242
210 201 193 200 205 204 208 208 199 203 212 208 207 222 238 242 225 216 201 191 207 205 195 209 228 214 207 216 209 198 204 208 210 201 192 195 189 186 183 184 227 234 93 55 41 68 102 130 120 88 103 129 142 143 146 146 152 160 164 170 173 176 176 172 175 181 175 170 195 213 189 163 163 155 152 150 147 149 139 136 139 134 132 139 214 270
201 203 197 199 205 201 204 208 197 201 212 211 199 205 221 236 234 215 203 204 215 214 194 198 222 236 217 214 201 197 210 210 215 210 187 189 190 186 193 187 178 105 94 87 63 69 92 118 116 120 138 151 143 142 147 137 146 161 164 166 168 170 167 169 180 186 180 177 199 213 188 163 164 150 145 144 143 142 133 135 144 143 140 143 194 279
192 206 201 197 201 197 201 201 192 199 211 219 205 196 208 223 230 219 212 216 221 227 208 191 208 238 236 215 195 198 214 213 214 208 177 180 188 185 199 175 114 106 112 117 123 128 137 147 159 161 160 155 141 135 127 123 143 159 160 159 158 161 165 175 190 189 183 191 206 204 172 155 151 142 144 144 142 141 134 138 147 149 152 166 224 262
191 208 197 186 193 193 199 201 198 200 207 221 214 191 199 212 218 221 220 221 220 230 228 196 195 221 239 225 204 201 211 212 212 206 184 182 190 199 195 141 112 123 130 135 148 161 163 165 176 170 150 136 125 122 126 131 142 155 159 157 153 157 164 177 194 192 192 208 212 192 158 151 144 140 144 139 139 140 134 142 145 143 142 316 290 293
192 196 186 183 201 204 200 205 207 203 203 216 216 191 194 202 207 216 222 226 223 226 232 214 201 210 229 228 214 205 209 210 211 209 199 190 190 199 177 125 121 135 132 142 159 171 170 166 170 157 133 128 130 141 154 150 149 156 155 151 151 154 159 174 201 210 212 213 203 173 154 150 140 138 140 137 140 138 133 136 122 71 10 342 312 305
193 190 190 191 209 212 204 205 204 197 201 209 204 187 189 191 198 210 213 223 231 224 222 219 215 215 221 228 219 204 203 210 213 212 209 198 190 189 159 129 134 138 135 151 165 174 167 158 159 148 135 137 144 155 161 153 150 152 149 155 160 158 160 175 204 225 226 210 179 157 150 141 137 138 137 135 133 127 120 114 79 19 333 312 294 287
193 194 197 196 210 212 203 199 192 186 199 203 188 188 194 186 192 204 202 208 226 228 212 209 218 222 222 229 228 204 193 208 218 215 213 207 201 188 155 143 146 140 142 154 165 172 158 154 160 151 144 146 148 156 161 156 151 148 152 162 163 160 166 175 185 212 229 208 154 142 136 130 132 128 125 123 118 112 92 69 37 347 308 295 295 295
188 190 196 199 205 208 207 202 185 180 197 199 185 190 198 188 187 198 202 206 218 226 218 208 214 225 224 222 234 228 200 197 209 217 216 209 211 192 148 146 152 146 149 157 167 171 161 162 163 154 154 154 151 156 160 158 152 150 157 161 160 165 172 174 169 183 226 203 131 129 129 126 123 114 113 111 103 103 77 53 3 349 312 295 317 319
191 187 193 200 192 196 209 206 187 187 198 197 191 199 207 200 193 197 201 208 212 212 214 213 211 222 221 201 223 238 218 183 202 212 208 201 208 182 139 144 151 152 158 161 165 168 165 166 162 157 160 159 156 157 157 156 152 149 155 160 165 171 172 170 162 156 177 184 135 130 128 125 123 118 121 112 98 107 92 64 5 5 345 322 334 329
200 193 189 198 193 192 202 199 191 197 197 189 193 208 215 207 196 198 212 223 232 218 206 210 216 222 226 203 216 227 203 177 205 194 166 169 175 141 129 144 150 154 161 158 160 166 165 167 163 159 158 157 158 157 152 152 152 149 154 163 171 174 170 168 157 143 150 173 155 131 122 120 125 128 131 124 112 115 105 86 84 67 55 26 340 324
200 194 181 188 193 195 201 199 196 200 193 180 198 212 212 210 207 199 212 232 256 232 203 196 214 216 219 223 226 230 202 176 191 189 166 173 159 131 127 148 154 155 159 153 157 163 164 168 166 158 153 152 157 157 153 154 157 156 157 164 171 170 168 166 151 137 144 156 141 127 125 122 124 128 128 129 127 123 117 111 114 107 91 54 4 347
192 187 174 180 189 191 197 206 204 201 200 189 198 208 203 210 219 208 202 207 214 225 208 191 205 209 209 203 197 215 216 185 187 195 191 193 178 152 144 150 151 154 155 152 154 158 162 166 163 156 152 156 162 160 155 155 158 157 157 164 167 163 163 160 145 138 141 139 129 128 130 126 127 127 123 127 130 125 124 123 119 111 95 64 35 9
192 188 166 179 191 185 188 207 209 201 210 213 201 204 205 205 214 212 204 200 200 215 214 197 202 209 214 207 186 197 209 205 200 197 192 193 191 184 170 154 153 160 156 151 152 156 161 161 158 156 154 158 160 157 154 155 157 157 158 162 162 159 158 150 139 136 132 126 126 130 133 132 130 126 123 127 128 126 127 125 122 111 94 73 49 14
196 192 162 183 192 181 182 203 206 192 207 225 212 202 215 213 211 214 211 207 203 211 216 206 205 211 214 212 198 193 198 207 210 202 194 189 186 193 184 161 160 167 160 152 152 157 158 156 158 160 158 157 157 156 155 155 155 155 156 156 155 151 146 137 132 128 122 122 127 131 133 130 122 120 126 133 134 132 127 122 120 108 93 77 54 25
196 189 161 182 188 185 188 199 204 190 189 214 213 198 204 210 210 214 214 214 212 210 211 212 216 211 202 209 206 191 188 203 210 203 197 187 178 187 180 159 160 167 158 147 149 156 156 156 162 163 161 161 159 156 153 152 154 154 151 147 142 138 134 130 126 120 118 123 130 132 132 126 122 125 131 137 139 135 125 119 113 98 91 82 60 41
197 186 168 181 187 196 196 191 205 202 187 200 216 204 200 200 202 209 209 211 219 218 205 209 225 214 188 214 208 186 183 200 206 203 198 183 176 182 172 156 157 159 150 142 147 155 157 160 164 163 164 164 157 151 150 152 152 149 143 139 135 132 131 128 124 122 123 127 130 133 134 133 135 136 136 138 136 131 123 114 104 93 93 87 67 51
200 182 175 185 186 197 191 185 202 208 197 201 213 211 208 203 203 210 208 205 214 226 218 213 215 197 59 231 181 165 175 184 187 182 173 166 171 170 152 147 152 150 143 144 153 158 158 160 161 159 160 158 149 147 150 148 144 140 138 139 137 135 135 132 130 130 130 131 133 134 135 137 140 142 142 139 130 123 116 105 97 92 90 84 73 64
195 183 180 179 176 190 189 183 197 208 206 206 206 209 216 211 205 215 223 211 213 225 224 219 206 164 59 41 90 134 151 124 116 139 144 147 148 139 132 138 150 151 149 152 155 157 158 158 160 159 157 155 150 149 150 147 145 144 143 144 142 139 138 137 136 134 132 134 138 140 139 140 144 146 140 134 122 113 105 99 92 86 85 82 77 73
186 190 183 175 170 179 184 182 192 206 213 209 201 208 220 217 207 214 229 223 223 226 221 223 215 162 119 110 132 167 169 143 128 131 132 131 125 126 134 145 156 158 159 160 155 156 161 162 164 164 161 160 157 153 152 151 152 151 149 148 144 140 139 138 135 134 134 139 145 145 143 142 145 144 135 123 112 101 96 94 88 84 85 84 80 74
191 197 185 183 181 179 185 188 185 193 206 209 203 207 216 219 210 207 219 219 216 221 219 225 211 118 107 183 170 177 180 155 135 119 116 124 128 136 148 153 155 160 164 164 159 160 164 165 168 168 164 163 158 154 153 153 154 153 148 144 140 137 137 135 135 137 140 147 149 146 144 144 141 137 126 113 104 96 93 91 89 89 87 84 81 74
199 207 193 194 194 188 193 194 180 181 198 206 207 207 209 216 216 208 210 221 217 211 217 222 204 147 148 179 175 175 172 149 137 136 138 142 144 149 153 150 150 158 165 165 161 162 164 166 173 172 164 160 156 153 151 151 151 148 142 139 137 137 136 135 138 140 142 146 144 141 143 143 137 129 117 109 104 98 96 95 95 92 88 84 79 72
205 206 200 205 208 200 191 188 188 191 200 205 209 211 205 208 218 217 210 219 223 216 215 215 214 209 181 162 171 179 161 143 143 154 153 153 160 160 151 146 149 157 166 171 165 159 158 162 168 167 159 154 150 149 150 150 147 140 136 135 131 130 133 134 138 139 139 139 138 139 139 134 128 120 112 108 106 102 101 101 98 92 88 83 77 72
214 201 201 214 219 212 198 196 201 199 201 206 208 212 209 204 212 217 215 219 223 223 224 214 216 222 195 152 170 172 153 151 163 163 156 156 164 163 147 145 155 161 167 172 162 150 150 154 154 149 142 138 138 140 141 140 135 131 131 128 123 126 131 134 136 135 133 134 135 137 134 127 122 115 110 110 109 108 107 103 98 93 88 82 78 77
220 196 195 207 210 220 230 225 218 206 202 205 204 208 212 209 210 213 214 217 219 223 234 238 231 227 201 142 148 146 138 151 160 158 163 163 163 164 154 150 158 166 169 166 154 148 153 149 136 125 115 108 107 107 106 109 115 122 127 128 129 133 134 134 130 125 126 135 138 136 130 124 119 113 112 114 113 112 110 104 100 95 90 86 83 81
218 194 187 198 200 213 228 241 245 227 212 208 205 206 208 208 210 211 211 213 214 219 226 230 243 230 178 108 108 117 126 145 152 155 168 169 165 167 161 152 156 169 170 156 141 142 146 135 122 115 106 97 94 95 97 102 109 116 124 130 133 134 134 131 124 119 129 140 138 132 126 122 119 115 115 116 116 114 110 105 102 98 94 91 86 80
219 208 185 193 202 205 206 217 232 236 233 222 210 205 204 206 208 206 207 209 210 216 217 206 217 221 132 103 109 126 132 145 154 158 165 168 169 171 164 154 158 166 158 137 126 125 127 125 120 115 110 107 109 111 112 115 115 113 117 123 123 122 124 125 122 126 138 142 135 129 126 122 119 117 118 118 116 114 111 107 105 102 99 94 87 81
200 204 188 193 201 198 191 195 211 220 227 226 215 208 205 204 205 202 204 207 207 213 215 206 223 224 135 127 140 151 150 153 157 161 165 166 169 170 159 153 158 154 135 123 125 122 118 122 123 121 121 121 121 123 125 124 119 116 121 124 121 121 123 124 126 134 141 138 132 128 125 122 119 118 119 118 116 116 114 111 108 105 101 95 90 84
188 195 196 195 199 193 180 171 173 212 213 210 225 227 217 209 210 209 205 204 205 211 218 218 229 240 164 152 160 159 157 158 160 165 166 163 165 160 149 152 156 147 133 131 132 127 119 120 123 125 129 129 127 127 127 126 123 124 129 129 126 128 133 133 133 138 139 133 129 128 125 121 120 119 118 119 120 120 116 114 111 108 103 99 93 86
191 196 199 197 204 172 151 162 180 202 214 214 32 258 229 218 222 223 218 213 208 207 216 224 219 227 305 176 160 151 146 147 155 165 165 161 160 156 152 154 152 144 139 137 135 131 126 122 121 124 128 129 129 129 127 127 127 130 132 132 130 133 139 139 136 137 136 130 127 127 125 122 122 121 119 121 124 122 118 115 113 109 105 101 95 88
195 202 201 200 202 144 134 192 196 149 234 274 75 121 170 197 212 222 224 222 217 209 211 222 216 195 204 188 152 142 140 138 144 165 169 160 154 156 157 151 145 142 140 136 132 130 130 129 129 130 130 131 133 132 130 131 132 133 134 134 135 138 140 139 137 136 133 129 127 127 125 124 126 124 122 123 124 121 118 116 114 110 106 102 97 91
199 206 197 198 208 194 188 206 184 114 189 237 211 173 179 197 202 209 215 217 220 220 215 222 221 203 185 167 138 133 139 142 145 167 175 162 153 158 157 145 137 137 134 131 130 130 133 137 138 138 139 140 140 137 135 136 137 137 136 136 138 140 140 138 136 134 130 127 126 127 127 127 128 126 125 124 123 121 119 117 113 110 107 104 100 95
209 211 201 194 204 218 229 217 194 190 214 212 184 161 158 212 204 209 221 215 208 213 219 226 224 204 181 168 146 138 144 156 161 167 173 166 159 161 156 145 140 140 137 135 136 136 139 142 141 141 142 141 139 138 137 138 138 138 138 138 139 140 140 138 135 131 129 127 127 129 130 130 129 128 125 123 122 121 119 117 113 111 109 105 102 97
213 214 213 211 203 208 231 230 210 216 245 143 148 143 135 122 115 193 213 216 214 210 209 215 219 202 175 161 153 157 170 182 174 163 167 170 164 158 151 146 145 144 141 141 141 139 140 140 139 139 139 137 137 140 140 139 139 139 138 139 140 140 138 135 132 131 130 128 129 130 131 132 130 128 126 123 121 121 118 117 114 112 110 106 101 97
206 208 215 223 220 215 225 236 223 212 34 67 116 135 116 101 107 191 192 197 331 307 215 209 208 183 156 149 161 179 190 202 171 155 161 167 159 146 144 145 146 146 144 142 141 139 139 139 140 139 138 137 138 140 142 141 139 138 139 141 141 138 136 134 133 132 130 128 129 130 131 130 127 126 128 124 121 119 117 115 114 112 110 107 103 99
196 206 214 220 220 216 220 228 217 98 39 31 122 138 114 115 158 195 183 156 349 334 299 241 181 148 142 152 169 179 191 300 132 145 154 158 147 141 144 143 144 148 146 139 137 138 139 140 140 138 137 139 140 142 143 142 139 138 140 141 138 134 134 135 134 133 131 130 130 131 132 131 123 120 124 124 121 119 115 113 113 112 110 108 104 102
186 197 211 219 219 217 219 224 207 124 3 313 105 114 110 178 170 169 227 346 339 311 294 97 125 139 153 164 170 166 92 119 134 142 152 155 148 150 152 145 146 150 144 136 137 143 143 141 140 139 138 141 143 143 142 140 140 141 140 138 135 133 134 136 136 134 132 131 131 132 134 132 123 117 121 123 120 117 115 114 113 111 110 110 108 106
190 195 202 207 211 214 218 224 216 160 95 311 358 103 62 3 117 112 301 323 345 322 252 116 131 164 173 162 155 106 95 123 138 143 146 149 150 153 155 151 149 148 143 141 145 147 144 142 142 142 142 144 144 143 143 142 141 141 139 136 136 136 137 137 136 134 132 131 132 132 131 129 125 122 123 122 120 119 117 117 115 112 111 112 110 108
280 246 213 197 208 217 214 214 201 119 67 37 52 84 68 64 67 13 333 341 68 11 25 110 135 170 175 145 123 107 113 132 143 142 141 147 152 154 156 153 145 142 146 149 149 147 145 144 144 143 143 144 143 142 144 145 142 139 138 137 138 138 137 136 135 133 131 130 131 131 129 128 127 125 124 122 121 120 118 117 117 116 116 116 115 113
307 284 148 78 351 327 89 75 81 104 83 64 77 92 89 88 81 6 327 321 56 42 15 52 114 146 161 127 110 112 134 142 144 144 145 152 156 155 157 151 142 144 152 152 149 150 150 145 143 143 143 144 145 143 144 146 144 141 139 138 139 138 136 136 135 133 130 130 131 131 129 128 127 125 125 125 123 121 121 122 123 121 119 119 118 118
155 145 107 103 139 117 87 90 113 117 109 111 109 100 95 102 89 13 325 343 38 47 27 21 63 114 145 138 131 140 148 144 146 149 150 155 158 158 155 147 143 150 157 152 150 155 154 146 142 142 142 144 145 144 143 145 145 143 140 140 140 138 137 137 135 133 131 130 132 133 131 129 128 127 125 124 122 122 123 124 124 124 123 122 120 119
136 163 167 163 176 176 137 117 119 108 113 143 143 126 132 135 59 352 328 351 4 21 37 32 45 99 132 157 157 152 148 148 149 148 151 159 162 155 148 144 148 156 158 153 153 156 152 146 144 143 143 144 144 142 142 144 143 142 140 141 141 139 138 137 135 133 132 131 132 133 133 131 129 129 127 124 124 126 128 128 121 111 105 107 115 123
116 220 240 201 154 129 91 110 117 120 127 144 162 143 113 83 39 10 346 318 314 346 47 45 50 128 147 163 155 151 159 160 150 146 154 159 152 141 139 144 154 157 152 150 156 158 151 144 143 143 142 142 141 142 143 142 142 142 141 140 141 141 139 138 136 134 133 132 132 133 134 134 133 130 121 111 106 105 111 118 105 80 68 65 72 102
246 272 275 224 139 111 101 125 135 141 135 130 124 61 49 37 2 357 355 303 277 303 81 69 59 155 165 158 152 159 172 164 153 153 155 144 123 121 135 145 151 149 146 148 157 160 155 146 141 141 141 141 142 143 142 141 142 143 140 139 140 140 139 138 137 135 134 134 135 136 138 138 135 128 110 96 89 82 83 96 99 86 77 70 66 79
315 331 336 325 156 137 84 77 96 121 119 101 82 63 40 352 300 345 2 3 356 5 121 120 118 180 168 147 157 174 180 166 153 154 155 143 120 121 134 142 143 144 148 151 153 155 154 148 142 141 142 142 142 142 141 141 142 142 140 139 139 140 140 139 137 134 135 137 137 139 141 139 135 130 118 110 103 92 86 92 99 98 93 85 82 92
5 8 4 360 53 68 48 45 52 73 101 90 82 76 36 360 353 13 25 27 15 357 333 144 163 179 171 87 121 179 174 158 144 148 155 148 127 121 127 133 137 143 151 152 145 140 144 146 145 144 142 140 141 142 140 140 140 141 143 143 141 141 141 138 135 134 136 137 136 137 139 135 132 130 125 120 117 109 101 96 93 93 95 97 100 106